Tracking 30102 objects as of 12-Dec-2024
HD Live streaming from Space Station
objects crossing your sky now

STARLINK-6331

Track STARLINK-6331 now!
10-day predictions
STARLINK-6331 is classified as:


NORAD ID: 57351
Int'l Code: 2023-099Z
Perigee: 565.4 km
Apogee: 567.0 km
Inclination: 43.0 °
Period: 95.8 minutes
Semi major axis: 6937 km
RCS: Unknown
Launch date: July 16, 2023
Source: United States (US)
Launch site: AIR FORCE EASTERN TEST RANGE (AFETR)
Your satellite tracking list
Your tracking list is empty




NASA's NSSDC Master Catalog

Two Line Element Set (TLE):
1 57351U 23099Z   24346.98505545 -.00000127  00000-0  56952-5 0  9997
2 57351  43.0011 188.3619 0001174 260.3794  99.6916 15.02535197 78027
Source of the keplerian elements: AFSPC